Regional Weather Roundup
Issued by NWS State College, PA

Home | Current Version | Previous Version | Text Only | Print | Product List | Glossary Off
Versions: 1 2 3 4 5 6 7 8 9 10 11 12 13 14 15 16 17 18 19 20 21 22 23 24 25 26 27 28 29 30 31 32 33 34 35 36 37 38 39 40 41 42 43 44 45 46 47 48 49 50

000
ASUS41 KCTP 041310
RWRCTP

REGIONAL WEATHER ROUNDUP
NATIONAL WEATHER SERVICE STATE COLLEGE PA
900 AM EDT MON MAY 04 2015

Note: "fair" indicates few or no clouds below 12,000 feet with no
significant weather and/or obstructions to visibility.

* = STATION THAT DOES NOT REPORT PRECIPITATION /E.G. RAIN...SNOW...ETC/
    THUNDER OR FOG.

PAZ002>004-007>009-013>016-020>023-029>032-041400-
WESTERN PENNSYLVANIA

CITY           SKY/WX    TMP DP  RH WIND       PRES   REMARKS
ERIE           SUNNY     69  43  38 S17       30.11S
MEADVILLE      SUNNY     67  41  38 S8        30.16S
FRANKLIN*      SUNNY     66  41  39 S9        30.19S
NEW CASTLE     FAIR      67  45  45 CALM      30.18S
BEAVER COUNTY  SUNNY     63  43  48 S5        30.18S
BUTLER*        MOSUNNY   64  45  48 SW9       30.21S
PITTSBURGH INT PTSUNNY   63  44  50 S5        30.19R
PITTSBURGH     SUNNY     62  38  40 S10       30.19S
INDIANA*       SUNNY     66  45  45 S5        30.24S
LATROBE        SUNNY     61  48  63 CALM      30.22S
WASHINGTON CO* SUNNY     64  45  48 CALM      30.22R
$$

PAZ004>006-010>012-017>019-024>028-033>037-041-042-045-046-049>053-041400-
CENTRAL PENNSYLVANIA

CITY           SKY/WX    TMP DP  RH WIND       PRES   REMARKS
BRADFORD       SUNNY     66  38  35 SW7G16    30.20R
DUBOIS         SUNNY     68  39  34 SW7       30.20S
CLEARFIELD     SUNNY     57  44  62 S3        30.22S
JOHNSTOWN      SUNNY     64  37  36 SW5       30.24R
ALTOONA        SUNNY     64  44  48 CALM      30.23S
STATE COLLEGE  SUNNY     61  45  55 CALM      30.22S
WILLIAMSPORT   SUNNY     58  46  64 CALM      30.21S
SELINSGROVE    SUNNY     59  49  69 CALM      30.22S
FT INDIANTOWN  PTSUNNY   62  46  55 CALM      30.22S
CAPITAL CITY   SUNNY     65  50  58 CALM      30.22S
HARRISBURG     SUNNY     62  52  69 CALM      30.22S
YORK           SUNNY     64  49  57 CALM      30.23R
$$

PAZ038>040-043-044-047-048-054-055-060>062-067>071-041400-
EASTERN PENNSYLVANIA

CITY           SKY/WX    TMP DP  RH WIND       PRES   REMARKS
SCRANTON       SUNNY     66  41  40 W6        30.21S
MOUNT POCONO   SUNNY     69  39  33 W7        30.24R
ALLENTOWN      MOSUNNY   63  47  55 CALM      30.22R
QUAKERTOWN*    SUNNY     66  48  52 CALM      30.23S
READING        SUNNY     64  48  56 CALM      30.22R
LANCASTER      SUNNY     63  49  60 CALM      30.23R
COATESVILLE    SUNNY     68  48  49 CALM      30.24R
POTTSTOWN      SUNNY     64  48  56 CALM      30.23S
BLUE BELL      SUNNY     70  50  49 SW3       30.22S
DOYLESTOWN     MOSUNNY   64  47  53 VRB3      30.21S
WILLOW GROVE   NOT AVBL
NORTH PHILA    SUNNY     71  46  40 SW5       30.23S
PHILADELPHIA   MOSUNNY   66  50  56 SW6       30.23S
$$


USA.gov is the U.S. government's official web portal to all federal, state and local government web resources and services.